Home   Weather   Tucumán   Past weeks

Flag for Argentina Past Weather in Tucumán, Tucumán, Argentina — Yesterday and Last 2 Weeks

Now
63 °F

Passing clouds.


Feels Like: 63 °F
Forecast: N/A
Wind: 23 mph from East

Location: Tucuman Aerodrome

Current Time: Apr 25, 2017 at 7:21:12 pm

Latest Report: Apr 25, 2017 at 7:00 pm


Visibility: 3 mi

Pressure: 29.86 "Hg

Humidity: 83%

Dew Point: 57 °F

Location of TucumánLocation

Past Weather in Tucumán — Graph

°F

Tucumán Temperature Yesterday

Maximum temperature yesterday: 79 °F (at 2:00 pm)
Minimum temperature yesterday: 61 °F (at 3:00 am)
Average temperature yesterday: 69 °F

High & Low Weather Summary for the Past Weeks

 TemperatureHumidityPressure
High82 °F (Apr 11, 3:00 pm)100% (Apr 15, 8:00 pm)30.27 "Hg (Apr 15, 8:00 pm)
Low55 °F (Apr 11, 5:00 am)26% (Apr 11, 4:00 pm)29.68 "Hg (Apr 25, 4:00 am)
Average66 °F81%30.01 "Hg
* Reported Apr 10 6:00 pm — Apr 25 6:00 pm, Tucumán, Weather by CustomWeather, © 2017

Note: Actual official high and low records may vary slightly from our data, if they occured in-between our weather recording intervals... More about our weather records

Advertising

Tucumán Weather History for the Previous 24 Hours

Scroll right to see more
 ConditionsComfort  
Time TempWeatherWind HumidityBarometerVisibility
6:00 pm
Tue, Apr 25
77 °FPassing clouds.7 mph65%29.74 "HgN/A
5:00 pm79 °FScattered clouds.9 mph61%29.71 "HgN/A
4:00 pm79 °FScattered clouds.9 mph65%29.68 "HgN/A
3:00 pm75 °FPartly sunny.12 mph69%29.68 "HgN/A
2:00 pm75 °FBroken clouds.10 mph69%29.68 "HgN/A
1:00 pm72 °FBroken clouds.8 mph78%29.71 "HgN/A
12:00 pm72 °FBroken clouds.8 mph78%29.71 "Hg6 mi
11:00 am72 °FBroken clouds.6 mph78%29.68 "Hg6 mi
10:00 am68 °FPartly sunny.No wind94%29.71 "Hg4 mi
9:00 am66 °FDrizzle. Fog.No wind100%29.71 "Hg2 mi
8:00 am66 °FFog.No wind94%29.71 "Hg1 mi
7:00 am66 °FFog.No wind94%29.68 "Hg2 mi
6:00 am66 °FFog.No wind94%29.68 "Hg1 mi
5:30 am66 °FFog.No wind94%29.68 "Hg1 mi
5:00 am66 °FFog.No wind94%29.68 "Hg1 mi
4:00 am66 °FFog.No wind100%29.68 "Hg0 mi
3:00 am66 °FFog.No wind94%29.74 "Hg0 mi
1:00 am66 °FPartly cloudy.3 mph100%29.77 "HgN/A
12:00 am68 °FPassing clouds.No wind94%29.80 "HgN/A
11:00 pm
Mon, Apr 24
68 °FMostly cloudy.5 mph94%29.80 "HgN/A
10:00 pm70 °FMostly cloudy.7 mph88%29.80 "HgN/A
9:00 pm70 °FMostly cloudy.5 mph88%29.77 "HgN/A
8:00 pm72 °FOvercast.5 mph83%29.77 "HgN/A
7:00 pm73 °FOvercast.5 mph74%29.77 "HgN/A
Weather by CustomWeather, © 2017

See weather overviewHow to use our weather pages